N8IR-19 Weather Reports


time (UTC)temp
C
wind
direction
speed
KPH
gust
KPH
rain 1hr
cm
rain 24hr
cm
rain mn
cm
humidity
%
barometer
mb
20260903060119 25 0 6.4 8.0 0.00 0.00 0.00 54 995.6
20260903055619 25 0 9.7 14.5 0.00 0.00 0.00 55 995.7
20260903055117 25 0 8.0 12.9 0.00 0.00 0.00 54 995.7
20260903054617 25 0 9.7 16.1 0.00 0.00 0.00 54 995.8
20260903054116 25 0 11.3 17.7 0.00 0.00 0.00 54 995.7
20260903053616 26 0 16.1 20.9 0.00 0.00 0.00 54 995.8
20260903053117 26 0 20.9 35.4 0.00 0.00 0.00 53 995.7
20260903052657 27 0 8.0 17.7 0.00 0.00 0.00 56 995.4
20260903052116 27 0 19.3 22.5 0.00 0.00 0.00 56 995.6
20260903051617 27 293 1.6 6.4 0.00 0.00 0.00 56 994.8
20260903051116 27 0 4.8 6.4 0.00 0.00 0.00 55 994.6
20260903050616 27 225 3.2 6.4 0.00 0.00 0.00 56 994.5
20260903050117 27 225 3.2 4.8 0.00 0.00 0.00 55 994.4
20260903045636 27 0 6.4 8.0 0.00 0.00 0.00 55 994.3
20260903045116 27 0 8.0 9.7 0.00 0.00 0.00 55 994.3
20260903044617 27 225 6.4 9.7 0.00 0.00 0.00 55 994.3
20260903044138 27 248 8.0 11.3 0.00 0.00 0.00 55 994.3
20260903043619 27 225 8.0 9.7 0.00 0.00 0.00 55 994.2
20260903043119 27 225 6.4 8.0 0.00 0.00 0.00 55 994.2
20260903042616 28 0 8.0 9.7 0.00 0.00 0.00 55 994.1
20260903042137 28 225 6.4 6.4 0.00 0.00 0.00 55 994.1
20260903041619 28 225 6.4 8.0 0.00 0.00 0.00 55 994.0
20260903041121 28 0 4.8 6.4 0.00 0.00 0.00 55 994.0
20260903040621 28 225 4.8 4.8 0.00 0.00 0.00 55 993.9
20260903040118 28 0.0 0.0 0.00 0.00 0.00 55 993.9
20260903035619 28 225 1.6 4.8 0.00 0.00 0.00 55 993.9
20260903035117 27 225 3.2 6.4 0.00 0.00 0.00 55 993.8
20260903034618 27 225 8.0 12.9 0.00 0.00 0.00 55 993.7
20260903034119 27 225 9.7 12.9 0.00 0.00 0.00 55 993.7
20260903033618 27 225 12.9 19.3 0.00 0.00 0.00 55 993.6
20260903033120 27 225 19.3 22.5 0.00 0.00 0.00 55 993.4
20260903032616 27 225 19.3 24.1 0.00 0.00 0.00 55 993.1
20260903032119 27 225 19.3 24.1 0.00 0.00 0.00 55 993.1
20260903031619 27 0 16.1 19.3 0.00 0.00 0.00 55 993.1
20260903031120 27 0 17.7 22.5 0.00 0.00 0.00 55 993.0
20260903030619 27 0 17.7 24.1 0.00 0.00 0.00 55 993.1
20260903030119 28 0 17.7 20.9 0.00 0.00 0.00 55 993.2
20260903025636 28 0 19.3 22.5 0.00 0.00 0.00 55 993.4
20260903024620 28 0 17.7 22.5 0.00 0.00 0.00 55 993.6
20260903024121 28 0 19.3 22.5 0.00 0.00 0.00 55 993.7
20260903023616 28 0 17.7 22.5 0.00 0.00 0.00 55 993.7
20260903023220 28 0 16.1 20.9 0.00 0.00 0.00 55 993.7
20260903022616 28 0 14.5 17.7 0.00 0.00 0.00 55 993.8
20260903022119 28 0 11.3 17.7 0.00 0.00 0.00 55 993.8
20260903021618 28 203 14.5 20.9 0.00 0.00 0.00 55 993.8
20260903021116 28 0 11.3 16.1 0.00 0.00 0.00 55 993.9
20260903020616 28 0 16.1 22.5 0.00 0.00 0.00 55 993.9
20260903020118 28 203 12.9 16.1 0.00 0.00 0.00 54 994.0
20260903015638 28 0 11.3 17.7 0.00 0.00 0.00 54 994.0
20260903015121 28 0 9.7 17.7 0.00 0.00 0.00 54 994.0
20260903014620 28 0 8.0 12.9 0.00 0.00 0.00 54 994.1
20260903014121 28 0 11.3 14.5 0.00 0.00 0.00 54 994.1
20260903013701 28 0 11.3 16.1 0.00 0.00 0.00 54 994.1
20260903013121 28 0 9.7 19.3 0.00 0.00 0.00 54 994.1
20260903012620 28 0 8.0 14.5 0.00 0.00 0.00 54 994.0
20260903012120 29 0 11.3 14.5 0.00 0.00 0.00 54 994.1
20260903011621 29 0 9.7 12.9 0.00 0.00 0.00 54 994.1
20260903011120 29 203 8.0 9.7 0.00 0.00 0.00 53 994.1
20260903010618 29 0 6.4 9.7 0.00 0.00 0.00 53 994.0
20260903010121 29 0 6.4 11.3 0.00 0.00 0.00 53 993.9
20260903005618 29 0 6.4 8.0 0.00 0.00 0.00 53 993.9
20260903005120 29 0 4.8 6.4 0.00 0.00 0.00 53 993.9
20260903004619 29 0 8.0 12.9 0.00 0.00 0.00 53 994.0
20260903004120 30 0 11.3 14.5 0.00 0.00 0.00 52 994.0
20260903003620 30 0 8.0 9.7 0.00 0.00 0.00 52 993.9
20260903003118 30 225 8.0 8.0 0.00 0.00 0.00 52 993.8
20260903002619 30 225 8.0 9.7 0.00 0.00 0.00 51 993.9
20260903002118 30 225 8.0 9.7 0.00 0.00 0.00 50 993.9
20260903001618 30 225 8.0 9.7 0.00 0.00 0.00 50 993.9
20260903001123 30 225 6.4 9.7 0.00 0.00 0.00 50 994.0
20260903000621 31 225 6.4 6.4 0.00 0.00 0.00 49 994.0
20260903000138 31 225 4.8 8.0 0.00 0.00 0.00 49 993.8
20260902235618 31 225 4.8 6.4 0.00 0.00 0.00 49 993.9
20260902235118 31 225 6.4 8.0 0.00 0.00 0.00 49 993.9
20260902234621 31 225 8.0 9.7 0.00 0.00 0.00 48 993.8
20260902234259 31 225 8.0 11.3 0.00 0.00 0.00 48 993.8
20260902233618 31 248 11.3 14.5 0.00 0.00 0.00 47 993.7
20260902233121 31 225 11.3 16.1 0.00 0.00 0.00 47 993.7
20260902232621 31 248 9.7 14.5 0.00 0.00 0.00 47 993.6
20260902232140 32 248 8.0 9.7 0.00 0.00 0.00 47 993.7
20260902231620 32 225 8.0 11.3 0.00 0.00 0.00 47 993.6
20260902231118 32 248 12.9 16.1 0.00 0.00 0.00 47 993.6
20260902230618 32 225 12.9 17.7 0.00 0.00 0.00 46 993.6
20260902230118 32 225 12.9 16.1 0.00 0.00 0.00 46 993.5
20260902225702 32 248 12.9 17.7 0.00 0.00 0.00 46 993.5
20260902225120 33 0 14.5 19.3 0.00 0.00 0.00 45 993.5
20260902224620 33 225 11.3 16.1 0.00 0.00 0.00 45 993.5
20260902224118 33 225 12.9 17.7 0.00 0.00 0.00 45 993.6
20260902223620 33 225 11.3 14.5 0.00 0.00 0.00 45 993.6
20260902223120 33 225 12.9 16.1 0.00 0.00 0.00 44 993.7
20260902222618 33 225 11.3 16.1 0.00 0.00 0.00 44 993.6
20260902222118 33 248 11.3 14.5 0.00 0.00 0.00 44 993.6
20260902221641 33 225 11.3 16.1 0.00 0.00 0.00 45 993.7
20260902221119 33 225 17.7 20.9 0.00 0.00 0.00 44 993.8
20260902220618 33 0 14.5 20.9 0.00 0.00 0.00 44 993.8
20260902220118 34 225 14.5 20.9 0.00 0.00 0.00 43 993.8
20260902215638 34 248 9.7 11.3 0.00 0.00 0.00 42 993.6
20260902215118 34 248 9.7 12.9 0.00 0.00 0.00 41 993.7
20260902214621 34 248 8.0 11.3 0.00 0.00 0.00 42 993.8
20260902214201 34 225 9.7 14.5 0.00 0.00 0.00 43 993.8
20260902213620 34 225 14.5 17.7 0.00 0.00 0.00 42 993.8
20260902213120 34 225 11.3 17.7 0.00 0.00 0.00 42 993.8
20260902212619 34 248 14.5 19.3 0.00 0.00 0.00 42 993.9
20260902212119 33 248 14.5 17.7 0.00 0.00 0.00 43 993.9
20260902211642 33 248 8.0 11.3 0.00 0.00 0.00 43 993.9
20260902211118 33 0 20.9 24.1 0.00 0.00 0.00 44 994.0
20260902210640 33 0 14.5 19.3 0.00 0.00 0.00 44 994.0
20260902210118 33 0 14.5 20.9 0.00 0.00 0.00 44 994.0
20260902205618 33 0 16.1 22.5 0.00 0.00 0.00 43 994.1
20260902205118 33 225 8.0 11.3 0.00 0.00 0.00 43 994.2
20260902204620 33 0 17.7 19.3 0.00 0.00 0.00 44 994.2
20260902204118 33 0 20.9 27.4 0.00 0.00 0.00 44 994.2
20260902203619 33 0 17.7 29.0 0.00 0.00 0.00 44 994.3
20260902203138 33 0 14.5 16.1 0.00 0.00 0.00 45 994.4
20260902202618 33 0 19.3 25.7 0.00 0.00 0.00 45 994.4
20260902202138 33 0 19.3 22.5 0.00 0.00 0.00 44 994.5
20260902201618 33 0 19.3 24.1 0.00 0.00 0.00 44 994.6
20260902201118 33 0 16.1 20.9 0.00 0.00 0.00 45 994.6
20260902200618 33 0 19.3 25.7 0.00 0.00 0.00 45 994.6
20260902200118 33 0 17.7 22.5 0.00 0.00 0.00 46 994.6
20260902195618 33 0 14.5 24.1 0.00 0.00 0.00 45 994.6
20260902195140 34 0 14.5 20.9 0.00 0.00 0.00 45 994.8
20260902194618 34 225 11.3 14.5 0.00 0.00 0.00 44 994.8
20260902194122 33 225 9.7 12.9 0.00 0.00 0.00 45 994.9
20260902193621 33 225 16.1 19.3 0.00 0.00 0.00 44 994.8
20260902193120 34 225 11.3 14.5 0.00 0.00 0.00 44 995.0
20260902192617 34 225 12.9 17.7 0.00 0.00 0.00 44 995.0
20260902192121 34 225 8.0 9.7 0.00 0.00 0.00 43 995.1
20260902191617 34 0 12.9 16.1 0.00 0.00 0.00 45 995.2
20260902191120 34 0 11.3 16.1 0.00 0.00 0.00 45 995.2
20260902190618 33 248 6.4 9.7 0.00 0.00 0.00 43 995.2
20260902190120 33 0 14.5 17.7 0.00 0.00 0.00 44 995.2
20260902185641 33 248 11.3 17.7 0.00 0.00 0.00 45 995.2
20260902185122 33 225 11.3 17.7 0.00 0.00 0.00 46 995.4
20260902184637 33 225 9.7 14.5 0.00 0.00 0.00 45 995.3
20260902184118 32 225 4.8 4.8 0.00 0.00 0.00 46 995.4
20260902183620 32 225 3.2 4.8 0.00 0.00 0.00 45 995.5
20260902183117 32 248 4.8 6.4 0.00 0.00 0.00 48 995.5
20260902182618 32 225 6.4 8.0 0.00 0.00 0.00 49 995.6
20260902182220 32 203 6.4 9.7 0.00 0.00 0.00 48 995.6
20260902181620 32 0 14.5 17.7 0.00 0.00 0.00 48 995.6
20260902181119 33 0 16.1 19.3 0.00 0.00 0.00 47 995.7
20260902180620 33 0 12.9 16.1 0.00 0.00 0.00 47 995.8
20260902180119 33 225 3.2 4.8 0.00 0.00 0.00 47 995.8
20260902175620 32 225 3.2 6.4 0.00 0.00 0.00 46 995.9
20260902175139 32 225 4.8 6.4 0.00 0.00 0.00 46 995.9
20260902174621 32 225 8.0 11.3 0.00 0.00 0.00 47 995.9
20260902174119 32 248 9.7 14.5 0.00 0.00 0.00 48 996.1
20260902173619 32 248 6.4 9.7 0.00 0.00 0.00 49 996.2
20260902173119 32 248 4.8 9.7 0.00 0.00 0.00 50 996.3
20260902172617 32 0 8.0 12.9 0.00 0.00 0.00 49 996.4
20260902172120 32 0 9.7 17.7 0.00 0.00 0.00 49 996.4
20260902171620 31 225 11.3 16.1 0.00 0.00 0.00 50 996.4
20260902171121 31 225 3.2 6.4 0.00 0.00 0.00 50 996.5
20260902170617 31 0 9.7 11.3 0.00 0.00 0.00 51 996.5
20260902170117 31 0 6.4 9.7 0.00 0.00 0.00 50 996.7
20260902165637 31 248 6.4 8.0 0.00 0.00 0.00 51 996.9
20260902165117 31 225 6.4 8.0 0.00 0.00 0.00 50 997.0
20260902164617 31 225 8.0 9.7 0.00 0.00 0.00 50 997.0
20260902164117 31 0 6.4 8.0 0.00 0.00 0.00 49 997.0
20260902163637 31 203 6.4 6.4 0.00 0.00 0.00 50 996.9
20260902163157 31 0 8.0 9.7 0.00 0.00 0.00 50 997.0
20260902162618 31 225 4.8 8.0 0.00 0.00 0.00 49 997.0
20260902162117 31 225 3.2 3.2 0.00 0.00 0.00 48 997.1
20260902161620 31 225 3.2 3.2 0.00 0.00 0.00 48 997.0
20260902161119 31 225 1.6 3.2 0.00 0.00 0.00 50 997.0
20260902160617 31 225 3.2 4.8 0.00 0.00 0.00 50 997.0
20260902160137 31 225 3.2 4.8 0.00 0.00 0.00 50 997.0
20260902155619 31 225 4.8 6.4 0.00 0.00 0.00 50 996.9
20260902155120 30 225 3.2 6.4 0.00 0.00 0.00 50 996.9
20260902154620 30 225 6.4 8.0 0.00 0.00 0.00 50 996.9
20260902154120 30 225 3.2 4.8 0.00 0.00 0.00 50 996.9
20260902153617 30 0 6.4 8.0 0.00 0.00 0.00 51 996.9
20260902153141 30 203 4.8 6.4 0.00 0.00 0.00 51 996.9
20260902152620 30 0 6.4 9.7 0.00 0.00 0.00 50 997.0
20260902152120 30 225 4.8 6.4 0.00 0.00 0.00 49 997.0
20260902151620 31 225 6.4 8.0 0.00 0.00 0.00 49 997.0
20260902151119 30 225 1.6 4.8 0.00 0.00 0.00 50 996.8
20260902150640 30 225 1.6 4.8 0.00 0.00 0.00 49 996.7
20260902150120 30 0 6.4 8.0 0.00 0.00 0.00 49 996.8
20260902145620 30 225 6.4 8.0 0.00 0.00 0.00 49 996.8
20260902145120 30 225 3.2 6.4 0.00 0.00 0.00 49 996.7
20260902144617 30 0.0 1.6 0.00 0.00 0.00 49 996.7
20260902144121 30 225 6.4 8.0 0.00 0.00 0.00 49 996.6
20260902143620 30 225 3.2 4.8 0.00 0.00 0.00 49 996.6
20260902143120 30 225 4.8 8.0 0.00 0.00 0.00 48 996.7
20260902142620 30 225 3.2 4.8 0.00 0.00 0.00 48 996.6
20260902142117 29 225 3.2 4.8 0.00 0.00 0.00 48 996.6
20260902141620 29 225 1.6 3.2 0.00 0.00 0.00 47 996.6
20260902141137 29 248 3.2 6.4 0.00 0.00 0.00 47 996.6
20260902140617 29 225 6.4 9.7 0.00 0.00 0.00 47 996.5
20260902140117 29 248 6.4 9.7 0.00 0.00 0.00 46 996.6
20260902135619 28 225 8.0 9.7 0.00 0.00 0.00 46 996.6
20260902135117 28 225 11.3 12.9 0.00 0.00 0.00 46 996.6
20260902134620 28 225 9.7 14.5 0.00 0.00 0.00 45 996.6
20260902134119 28 248 6.4 8.0 0.00 0.00 0.00 45 996.6
20260902133619 28 0.0 0.0 0.00 0.00 0.00 45 996.7
20260902133119 27 225 9.7 12.9 0.00 0.00 0.00 44 996.6
20260902132618 27 225 3.2 6.4 0.00 0.00 0.00 44 996.7
20260902132139 27 225 8.0 11.3 0.00 0.00 0.00 44 996.5
20260902131619 27 248 8.0 12.9 0.00 0.00 0.00 44 996.5
20260902131119 26 225 6.4 9.7 0.00 0.00 0.00 44 996.6
20260902130619 26 225 8.0 12.9 0.00 0.00 0.00 44 996.6
20260902130119 26 248 9.7 16.1 0.00 0.00 0.00 45 996.5
20260902125619 26 225 9.7 12.9 0.00 0.00 0.00 45 996.6
20260902125119 25 0 9.7 12.9 0.00 0.00 0.00 45 996.6
20260902124618 25 0 8.0 12.9 0.00 0.00 0.00 45 996.6
20260902124118 25 0 6.4 9.7 0.00 0.00 0.00 45 996.7
20260902123617 25 225 4.8 6.4 0.00 0.00 0.00 46 996.7
20260902123117 25 0 3.2 8.0 0.00 0.00 0.00 46 996.7
20260902122616 25 0 6.4 9.7 0.00 0.00 0.00 46 996.7
20260902122117 25 0 8.0 9.7 0.00 0.00 0.00 46 996.7
20260902121617 25 248 6.4 8.0 0.00 0.00 0.00 46 996.7
20260902121137 25 0 6.4 8.0 0.00 0.00 0.00 46 996.6
20260902120616 25 0 8.0 9.7 0.00 0.00 0.00 46 996.6
20260902120137 25 0 6.4 6.4 0.00 0.00 0.00 47 996.6
20260902115617 25 225 6.4 8.0 0.00 0.00 0.00 47 996.5
20260902115118 25 225 4.8 6.4 0.00 0.00 0.00 47 996.5
20260902114616 25 0.0 0.0 0.00 0.00 0.00 47 996.4
20260902114117 25 0.0 0.0 0.00 0.00 0.00 47 996.3
20260902113617 25 0.0 0.0 0.00 0.00 0.00 47 996.3
20260902113116 25 0.0 0.0 0.00 0.00 0.00 47 996.3
20260902112617 25 0.0 0.0 0.00 0.00 0.00 47 996.2
20260902112157 25 225 1.6 3.2 0.00 0.00 0.00 47 996.1
20260902111616 25 0.0 1.6 0.00 0.00 0.00 47 996.1
20260902111116 24 225 4.8 6.4 0.00 0.00 0.00 47 996.1
20260902110616 25 225 3.2 6.4 0.00 0.00 0.00 47 996.1
20260902110159 25 225 4.8 6.4 0.00 0.00 0.00 47 996.0
20260902105617 24 225 8.0 9.7 0.00 0.00 0.00 47 995.9
20260902105118 25 225 9.7 12.9 0.00 0.00 0.00 47 995.9
20260902104616 25 225 11.3 16.1 0.00 0.00 0.00 47 995.9
20260902104136 24 0 12.9 16.1 0.00 0.00 0.00 47 996.0
20260902103616 25 0 12.9 16.1 0.00 0.00 0.00 47 995.8
20260902103117 25 225 12.9 16.1 0.00 0.00 0.00 47 995.8
20260902102637 25 0 11.3 14.5 0.00 0.00 0.00 47 995.9
20260902102116 25 0 11.3 14.5 0.00 0.00 0.00 47 995.9
20260902101617 25 225 11.3 14.5 0.00 0.00 0.00 47 995.9
20260902101116 25 225 12.9 16.1 0.00 0.00 0.00 48 995.9
20260902100616 25 0 9.7 14.5 0.00 0.00 0.00 48 996.0
20260902100117 25 0 8.0 12.9 0.00 0.00 0.00 48 996.0
20260902095636 25 0 11.3 14.5 0.00 0.00 0.00 48 996.0
20260902095117 25 0 6.4 11.3 0.00 0.00 0.00 48 996.0
20260902094616 24 203 8.0 11.3 0.00 0.00 0.00 48 996.0
20260902094116 25 0 9.7 14.5 0.00 0.00 0.00 48 996.0
20260902093618 25 0 9.7 14.5 0.00 0.00 0.00 48 996.0
20260902093116 25 0 8.0 11.3 0.00 0.00 0.00 48 996.0
20260902092637 25 0 9.7 12.9 0.00 0.00 0.00 48 996.0
20260902092117 25 0 9.7 12.9 0.00 0.00 0.00 48 996.0
20260902091616 25 0 11.3 12.9 0.00 0.00 0.00 47 996.1
20260902091116 25 0 9.7 14.5 0.00 0.00 0.00 48 996.0
20260902090617 25 203 8.0 12.9 0.00 0.00 0.00 48 995.9
20260902090117 25 0 6.4 12.9 0.00 0.00 0.00 48 996.0
20260902085637 25 203 6.4 9.7 0.00 0.00 0.00 48 996.0
20260902085116 25 0 4.8 8.0 0.00 0.00 0.00 48 996.0
20260902084616 25 180 1.6 4.8 0.00 0.00 0.00 48 996.0
20260902084117 25 180 3.2 4.8 0.00 0.00 0.00 48 996.0
20260902083616 25 0 1.6 4.8 0.00 0.00 0.00 48 996.1
20260902083136 25 0.0 0.0 0.00 0.00 0.00 48 996.2
20260902082619 25 0.0 0.0 0.00 0.00 0.00 48 996.1
20260902082119 24 0.0 0.0 0.00 0.00 0.00 49 996.2
20260902081619 24 0.0 0.0 0.00 0.00 0.00 49 996.2
20260902081139 24 0.0 0.0 0.00 0.00 0.00 49 996.1
20260902080619 24 0.0 0.0 0.00 0.00 0.00 49 996.0
20260902080119 24 0.0 0.0 0.00 0.00 0.00 49 996.0
20260902075619 24 0.0 0.0 0.00 0.00 0.00 49 996.0
20260902075119 24 0.0 0.0 0.00 0.00 0.00 49 995.9
20260902074618 24 0.0 0.0 0.00 0.00 0.00 49 995.8
20260902074118 24 0.0 0.0 0.00 0.00 0.00 49 995.8
20260902073639 24 0.0 0.0 0.00 0.00 0.00 49 995.8
20260902073118 24 0.0 0.0 0.00 0.00 0.00 49 995.7
20260902072618 24 0.0 0.0 0.00 0.00 0.00 49 995.7
20260902072119 24 0.0 0.0 0.00 0.00 0.00 49 995.7
20260902071639 24 0.0 0.0 0.00 0.00 0.00 49 995.8
20260902071118 24 0.0 0.0 0.00 0.00 0.00 49 995.9
20260902070618 24 0.0 0.0 0.00 0.00 0.00 49 995.9
20260902070138 24 0.0 0.0 0.00 0.00 0.00 49 995.9
20260902065619 24 0.0 0.0 0.00 0.00 0.00 50 995.9
20260902065118 24 0.0 0.0 0.00 0.00 0.00 50 995.9
20260902064619 24 0.0 0.0 0.00 0.00 0.00 50 996.0
20260902064118 24 0.0 0.0 0.00 0.00 0.00 50 995.9
20260902063619 24 0.0 0.0 0.00 0.00 0.00 50 995.9
20260902063118 24 0.0 0.0 0.00 0.00 0.00 50 995.9
20260902062618 24 0.0 0.0 0.00 0.00 0.00 51 996.0
20260902062118 24 0.0 0.0 0.00 0.00 0.00 51 996.0
20260902061618 24 0.0 0.0 0.00 0.00 0.00 51 996.1
20260902061118 24 0.0 0.0 0.00 0.00 0.00 51 996.1
20260902060639 24 0.0 0.0 0.00 0.00 0.00 51 996.1